Location: Peterborough
(44.3091°N, 78.3197°W)
Time: 03:09:31
(UTC-04:00)

Tiros 1 despin weight - Pass Details

Date: 27 March 2023
Orbit: 586 x 632 km, 48.2° (Epoch: 08 June)

Event Time Altitude Azimuth Distance (km) Brightness Sun altitude
Rises 22:20:10 0° 255° (WSW) 2,803 ? -28.3°
Reaches altitude 10° 22:22:26 10° 258° (WSW) 1,906 ? -28.6°
Enters shadow 22:24:49 31° 266° (W) 1,029 ? -29.0°
Maximum altitude 22:26:48 71° 343° (NNW) 627 - -29.2°
Drops below altitude 10° 22:31:12 10° 67° (ENE) 1,929 - -29.9°
Sets 22:33:31 0° 70° (ENE) 2,839 - -30.2°
